Total_Precipitation_Accumulation
0.13 0.15 0.19 0.18 0.16 0.20 0.23 0.30 0.35 0.37 0.41 0.46 0.56 0.65 0.92 1.16 1.27 1.42 1.58 1.80 1.98 2.19 2.33 2.54 2.93 3.18 3.38 3.54 3.80 4.08 4.50 4.94 5.11 4.97 4.93 4.98 4.98 4.87 4.55 4.43 4.61 4.67 4.43 4.46
0.15 0.20 0.15 0.14 0.14 0.16 0.21 0.29 0.37 0.42 0.43 0.46 0.65 0.77 0.97 1.41 1.58 1.54 1.57 1.57 1.62 2.06 2.29 2.57 2.96 3.13 3.10 3.29 3.58 3.98 4.49 4.87 4.83 5.01 5.27 5.30 5.26 4.77 4.58 4.54 4.66 4.47 4.21 4.16
0.19 0.16 0.09 0.10 0.12 0.16 0.21 0.23 0.31 0.38 0.52 0.52 0.70 1.19 1.29 1.54 1.68 1.53 1.46 1.47 1.44 1.63 1.97 2.16 2.40 2.62 2.82 3.24 3.69 4.07 4.44 4.60 4.68 4.96 5.12 4.89 4.83 4.49 4.52 4.64 4.58 4.34 4.18 4.12
0.15 0.13 0.09 0.11 0.13 0.15 0.21 0.19 0.21 0.31 0.53 0.73 0.80 1.57 1.77 1.89 1.79 1.46 1.46 1.51 1.62 1.74 1.83 1.97 2.06 2.40 2.78 3.22 3.84 4.30 4.36 4.46 4.38 4.57 4.76 4.64 4.36 4.24 4.24 4.31 4.11 4.07 3.99 3.90
0.16 0.13 0.13 0.11 0.11 0.12 0.17 0.16 0.18 0.29 0.46 0.72 0.85 1.34 1.85 1.86 1.79 1.40 1.29 1.49 1.72 1.71 1.75 2.00 1.99 2.21 2.50 2.93 3.36 3.81 4.21 4.32 4.19 4.21 4.38 4.56 4.37 4.15 3.99 3.90 3.87 3.87 3.90 3.74
0.15 0.13 0.13 0.13 0.12 0.12 0.14 0.18 0.28 0.42 0.69 1.14 0.87 1.03 1.54 1.76 1.63 1.33 1.31 1.43 1.59 1.77 1.78 1.92 2.21 2.30 2.46 2.74 3.14 3.44 3.70 3.73 3.75 3.78 3.87 4.02 4.12 4.12 3.95 3.78 3.81 3.78 3.71 3.64
0.24 0.24 0.19 0.15 0.15 0.14 0.16 0.32 0.80 1.25 1.54 1.34 0.88 0.99 1.44 1.40 1.16 1.07 1.16 1.40 1.67 1.95 1.95 1.95 2.14 2.29 2.40 2.52 2.73 2.93 3.03 3.12 3.15 3.24 3.28 3.31 3.47 3.57 3.48 3.45 3.54 3.60 3.53 3.47
0.35 0.35 0.24 0.20 0.17 0.16 0.19 0.35 0.86 1.19 1.29 1.21 1.10 1.30 1.41 1.17 0.99 0.99 1.08 1.27 1.62 1.75 1.75 1.83 1.95 1.92 1.96 2.03 2.18 2.33 2.43 2.49 2.51 2.63 2.78 2.82 3.05 3.15 3.22 3.39 3.25 3.33 3.29 3.32
0.22 0.24 0.21 0.20 0.20 0.20 0.27 0.37 0.42 0.66 0.80 1.24 1.48 1.57 1.44 1.11 1.22 1.20 1.29 1.35 1.37 1.43 1.46 1.48 1.54 1.63 1.76 1.79 1.86 1.95 2.05 2.12 2.14 2.26 2.43 2.48 2.58 2.79 2.99 3.14 2.97 2.77 2.88 2.84
0.15 0.20 0.20 0.16 0.17 0.20 0.29 0.43 0.58 0.87 1.19 1.43 1.61 1.90 2.07 1.82 1.72 1.59 1.70 1.84 1.54 1.27 1.30 1.33 1.30 1.37 1.44 1.52 1.65 1.78 1.89 2.14 2.22 2.23 2.35 2.27 2.44 2.58 2.76 2.81 2.60 2.58 2.73 2.76
0.14 0.18 0.25 0.24 0.22 0.26 0.39 0.49 0.60 0.78 0.92 1.28 1.75 1.99 1.70 1.90 1.92 1.82 1.67 1.67 1.54 1.21 1.10 1.18 1.10 1.13 1.22 1.33 1.51 1.70 1.97 2.19 2.21 2.09 2.21 2.30 2.34 2.48 2.53 2.52 2.41 2.52 2.64 2.83
0.17 0.19 0.27 0.28 0.28 0.26 0.35 0.51 0.61 0.84 0.95 1.06 1.39 1.73 1.30 1.48 1.47 1.33 1.35 1.20 1.14 1.13 0.93 1.02 1.07 1.02 1.06 1.14 1.29 1.53 1.77 1.97 2.01 1.96 2.00 2.19 2.34 2.40 2.40 2.33 2.35 2.37 2.38 2.44
0.19 0.26 0.43 0.65 0.59 0.39 0.35 0.37 0.45 0.56 0.74 0.89 1.26 1.62 1.16 1.19 1.28 1.24 1.18 1.15 1.02 1.10 1.02 0.97 1.09 1.13 1.10 1.13 1.27 1.47 1.54 1.78 2.03 2.09 2.12 2.29 2.28 2.19 2.24 2.48 2.58 2.47 2.43 2.44
0.19 0.24 0.37 0.69 0.73 0.57 0.44 0.43 0.43 0.48 0.66 0.71 0.86 1.27 1.26 1.28 1.31 1.34 1.26 1.09 0.99 1.02 1.05 0.98 1.03 1.09 1.02 1.10 1.26 1.44 1.53 1.71 1.92 2.17 2.31 2.43 2.30 2.28 2.36 2.51 2.62 2.58 2.49 2.50
0.19 0.19 0.22 0.34 0.44 0.44 0.41 0.41 0.42 0.45 0.50 0.66 0.79 0.98 1.16 1.18 1.24 1.39 1.27 1.12 1.06 0.97 0.99 1.02 0.99 0.95 0.92 0.95 1.07 1.30 1.56 1.77 1.92 2.18 2.33 2.41 2.43 2.45 2.52 2.53 2.59 2.59 2.50 2.47
0.25 0.26 0.29 0.39 0.47 0.48 0.42 0.42 0.39 0.38 0.36 0.44 0.69 0.99 0.98 0.94 1.02 1.22 1.24 1.29 1.27 1.16 1.01 0.94 0.95 0.98 1.00 0.94 0.97 1.07 1.32 1.61 1.82 2.03 2.17 2.24 2.37 2.53 2.57 2.54 2.58 2.57 2.61 2.66
0.31 0.38 0.49 0.53 0.57 0.65 0.66 0.53 0.52 0.52 0.49 0.56 0.85 1.02 0.88 0.89 0.97 1.08 1.11 1.22 1.19 1.16 1.25 1.22 1.12 1.19 1.12 1.09 1.11 1.16 1.26 1.52 1.76 1.93 2.04 2.16 2.31 2.44 2.49 2.43 2.54 2.63 2.59 2.55
0.37 0.46 0.53 0.57 0.78 1.09 0.82 0.54 0.48 0.51 0.59 0.58 0.68 0.76 0.76 0.87 0.92 1.06 1.22 1.21 1.11 1.00 1.05 1.20 1.28 1.33 1.31 1.25 1.33 1.35 1.41 1.55 1.73 1.94 2.07 2.17 2.33 2.37 2.39 2.39 2.33 2.34 2.37 2.36
0.36 0.53 0.63 0.72 0.88 0.93 0.80 0.65 0.63 0.66 0.78 0.63 0.66 0.73 0.78 0.88 1.04 1.27 1.16 1.07 1.08 1.00 1.06 1.11 1.16 1.26 1.44 1.48 1.50 1.54 1.66 1.79 1.82 1.95 2.13 2.26 2.32 2.33 2.34 2.34 2.27 2.29 2.32 2.27
0.40 0.53 0.72 0.79 1.09 1.20 0.99 0.72 0.73 0.86 1.35 0.93 0.82 0.95 1.05 1.08 1.42 1.54 1.13 1.12 1.20 1.03 1.00 1.09 1.19 1.25 1.41 1.55 1.64 1.68 1.78 1.96 1.96 2.02 2.13 2.21 2.28 2.37 2.31 2.41 2.48 2.48 2.41 2.35
0.75 0.79 0.82 0.87 1.15 1.26 0.90 0.72 0.87 1.65 1.89 1.12 1.01 1.11 1.23 1.31 1.35 1.26 1.10 1.23 1.35 1.15 1.08 1.05 1.15 1.41 1.53 1.61 1.75 1.83 1.79 1.85 1.91 2.06 2.17 2.25 2.32 2.40 2.37 2.45 2.53 2.57 2.53 2.56
1.13 1.12 1.07 1.17 1.55 1.72 1.03 0.95 1.38 1.66 1.29 1.18 1.14 1.13 1.15 1.13 1.08 1.04 1.01 1.12 1.26 1.32 1.38 1.42 1.49 1.59 1.63 1.68 1.85 1.98 2.03 1.97 2.07 2.16 2.16 2.27 2.41 2.23 2.21 2.48 2.59 2.64 2.67 2.62
1.27 1.35 1.43 1.52 1.69 1.54 1.38 1.42 1.45 1.33 1.39 1.32 1.19 1.17 1.15 1.16 1.14 1.15 1.10 1.06 1.19 1.38 1.43 1.48 1.54 1.58 1.65 1.76 1.86 2.09 2.15 2.12 2.13 2.23 2.29 2.34 2.39 2.46 2.52 2.56 2.65 2.62 2.56 2.52
1.44 1.29 1.58 1.82 1.78 1.59 1.60 1.56 1.49 1.44 1.46 1.37 1.30 1.32 1.25 1.29 1.42 1.39 1.34 1.32 1.24 1.25 1.30 1.35 1.51 1.57 1.73 1.93 2.07 2.29 2.30 2.24 2.27 2.39 2.52 2.52 2.47 2.52 2.68 2.82 2.79 2.68 2.53 2.58
1.73 1.71 1.91 2.22 2.16 1.88 1.71 1.55 1.44 1.36 1.30 1.24 1.25 1.35 1.40 1.36 1.46 1.49 1.59 1.63 1.55 1.45 1.46 1.56 1.73 1.85 1.94 2.04 2.11 2.29 2.44 2.50 2.60 2.65 2.68 2.70 2.70 2.75 2.84 2.80 2.74 2.72 2.65 2.59
1.79 2.08 2.42 2.60 2.19 1.99 1.90 1.69 1.62 1.42 1.31 1.29 1.30 1.29 1.38 1.38 1.44 1.43 1.54 1.70 1.69 1.70 1.78 1.77 1.79 1.97 2.07 2.08 2.17 2.33 2.57 2.82 3.03 2.96 2.83 2.85 2.91 2.93 2.87 2.88 2.70 2.55 2.44 2.36